GEFSGL_500_meanwind_108.txt.gz
Wind_Speed
5 5 5 5 6 7 8 10 12 14 15 17 19 20 21 22 23 24 26 27 29 29 30 30 30 30 30 30 31 31 31 30 31 32 35 37 38 38 39 40 41 42 43
7 7 7 7 8 9 11 13 14 16 17 19 20 22 23 24 25 27 28 30 31 31 31 32 32 32 32 32 32 32 32 32 32 32 34 36 37 39 40 40 41 42 43
9 9 9 10 11 12 13 15 17 18 19 21 22 24 25 27 28 29 30 31 32 33 33 33 33 33 33 33 33 32 32 32 33 33 33 35 37 38 39 40 42 43 44
12 12 12 13 14 15 16 17 19 20 22 23 24 26 27 29 30 31 32 33 34 34 35 35 34 34 34 34 34 33 33 33 33 33 33 34 36 37 38 39 41 42 44
14 14 14 15 16 17 18 19 21 23 24 25 27 28 29 30 31 32 33 34 35 36 36 36 36 35 35 35 35 34 34 34 33 33 33 33 35 36 37 39 40 41 42
16 16 17 18 19 20 21 22 23 25 26 28 29 30 31 32 33 34 34 35 36 37 37 37 37 36 36 36 36 35 34 34 33 33 33 33 34 35 35 37 39 40 42
19 20 20 21 22 22 23 25 26 27 29 30 31 32 33 33 34 35 36 37 37 38 38 38 38 37 37 36 36 35 35 34 34 34 33 33 34 35 35 36 37 38 40
21 22 23 24 25 25 26 28 29 30 31 31 32 34 34 35 35 36 38 38 38 39 39 39 38 38 37 36 35 35 35 35 35 34 34 34 34 35 36 36 37 37 38
23 24 25 26 27 28 29 30 31 32 33 33 35 36 36 36 37 38 39 39 39 40 41 40 39 38 37 37 36 35 35 35 35 35 35 35 35 36 36 36 37 37 38
25 25 27 28 29 30 31 32 33 34 35 36 37 37 38 38 39 39 40 40 41 41 41 41 40 38 38 37 36 36 35 35 35 35 34 34 34 35 36 36 36 37 37
27 28 29 30 31 32 33 34 35 36 37 37 38 39 39 40 40 41 41 41 42 42 42 41 40 40 39 38 38 37 36 35 35 34 34 34 34 34 35 35 35 36 37
29 30 31 32 33 34 35 36 37 38 38 39 40 40 41 42 42 43 43 43 43 43 42 42 41 41 40 39 38 37 36 36 34 34 34 34 34 34 34 34 35 35 35
30 31 33 34 35 36 38 38 39 40 40 41 42 42 43 44 44 44 44 44 44 44 43 43 42 42 41 40 39 38 37 36 35 34 34 34 35 34 34 34 34 34 34
33 34 35 36 37 39 40 41 42 42 43 44 43 44 45 45 46 46 46 46 46 45 44 44 43 42 41 40 39 38 37 36 36 35 35 35 35 34 34 34 33 33 33
35 36 38 39 40 41 42 43 44 44 45 45 45 46 47 47 47 48 48 47 47 46 46 45 44 43 41 40 39 38 37 37 36 35 35 35 34 34 34 33 33 32 31
37 39 40 41 43 44 45 45 45 46 46 47 48 49 49 49 49 49 49 49 48 48 47 46 44 43 42 40 39 38 38 37 36 35 35 34 34 34 33 32 32 31 31
40 41 42 44 45 46 47 47 47 47 48 49 50 51 52 51 51 51 51 50 49 49 48 46 45 43 42 41 40 39 37 36 36 35 34 34 33 32 32 31 31 30 30
42 44 45 45 46 47 48 49 50 50 50 51 52 53 54 54 54 53 52 51 50 50 48 47 44 43 42 40 39 38 37 36 35 34 33 33 32 31 30 29 29 29 28
44 45 47 48 49 50 51 52 53 53 54 54 54 54 55 55 55 54 53 52 51 50 48 46 44 42 41 39 38 37 35 34 34 33 32 32 31 30 28 28 27 27 27
47 48 49 50 51 53 54 55 55 56 56 56 56 56 56 55 54 53 53 52 51 49 47 44 42 40 39 37 36 36 35 34 33 32 31 30 30 29 27 27 27 26 26
49 50 51 53 54 55 56 57 57 58 58 57 57 57 57 56 54 53 51 49 48 46 43 41 39 38 37 36 35 34 33 32 31 30 29 29 27 26 26 26 25 24 24
51 52 53 54 55 57 57 58 58 58 58 58 57 56 56 55 52 50 48 46 45 43 41 39 37 36 35 34 33 33 32 30 29 28 27 26 25 24 24 24 24 23 23
52 53 55 56 57 58 58 58 58 58 57 56 55 54 53 51 48 46 44 42 41 39 37 36 34 33 33 31 31 31 30 28 26 25 25 24 23 22 22 22 21 21 22
54 55 56 57 57 57 57 57 56 56 55 54 53 51 49 47 44 43 41 39 37 35 34 33 31 31 30 29 28 27 26 25 24 24 23 22 21 21 21 21 20 20 20
54 55 55 55 55 55 55 54 53 52 51 50 48 47 44 42 41 39 37 35 32 31 30 29 29 28 28 27 26 25 24 23 23 22 22 21 20 20 19 19 19 18 18
54 54 54 54 53 52 51 50 49 48 47 45 43 41 39 37 36 34 32 30 28 27 27 26 25 25 25 25 24 23 22 21 21 20 20 19 19 18 17 18 17 17 16

GEFSGL_500_meanwind_114.txt.gz
Wind_Speed
11 11 11 11 11 11 11 12 12 12 13 13 13 14 15 16 17 18 19 20 21 22 23 23 24 25 25 25 26 26 26 27 27 28 29 30 30 30 30 31 32 34 35
12 13 13 13 13 13 14 14 14 15 15 16 16 17 18 19 19 20 21 22 23 24 25 25 26 27 27 27 28 28 28 28 28 29 30 30 31 31 31 32 32 34 35
14 14 15 15 16 16 17 17 18 18 19 19 20 20 21 21 22 23 24 25 25 26 26 27 28 28 29 30 30 30 30 30 30 30 30 31 32 32 32 32 33 34 35
16 17 17 18 19 19 20 20 21 21 22 22 23 23 24 24 25 25 26 26 27 27 28 29 29 30 31 31 31 32 32 31 31 31 31 32 32 33 33 33 34 34 35
19 20 20 21 21 22 22 23 23 24 24 25 25 26 26 27 27 27 28 28 29 29 30 30 31 32 32 33 33 33 33 33 33 33 33 33 33 34 34 34 34 35 35
21 22 22 23 23 24 25 25 26 26 27 27 28 28 28 28 29 29 29 30 31 31 31 32 33 33 34 34 35 35 35 35 35 35 34 34 34 35 35 35 35 35 36
23 24 25 25 26 26 27 28 28 29 29 29 30 30 30 30 30 31 31 32 32 33 33 34 34 35 35 36 36 36 36 36 36 36 36 35 35 36 35 35 35 36 36
26 26 27 28 28 29 29 29 30 30 30 30 30 31 31 32 32 32 33 33 34 34 35 36 36 37 37 37 37 38 38 38 38 37 36 36 36 36 36 35 35 35 36
28 29 30 30 30 30 31 31 32 31 31 31 32 32 32 33 33 34 34 35 35 36 37 38 38 38 39 39 39 39 39 39 39 38 38 38 38 37 37 36 36 36 36
31 32 32 32 32 32 33 33 33 32 32 33 33 33 34 35 35 36 37 37 37 38 38 39 40 40 41 41 41 40 40 40 40 40 39 39 39 39 38 37 37 37 37
32 33 33 33 33 34 34 34 34 34 34 35 35 35 36 37 38 39 39 40 40 40 40 42 42 42 43 43 42 42 42 42 41 41 41 41 40 40 39 38 37 37 37
33 33 33 34 35 35 34 35 35 36 37 37 37 37 38 39 40 41 42 42 42 42 42 44 44 44 44 44 44 44 44 43 43 42 42 42 41 40 39 38 38 37 37
34 34 34 35 35 36 36 37 38 39 39 39 40 41 42 42 43 43 44 44 44 44 45 46 46 46 46 46 45 45 45 45 44 44 43 42 42 41 40 39 38 37 37
35 35 35 36 37 37 38 38 39 40 41 42 43 44 45 45 45 45 45 45 46 46 47 48 48 48 48 47 47 47 47 46 46 45 44 43 42 41 40 39 38 38 37
36 36 36 37 38 39 39 40 41 42 43 44 45 46 46 46 46 47 48 48 49 50 50 50 50 50 50 49 49 49 48 48 47 45 44 43 41 40 39 39 39 38 37
37 38 38 39 40 41 41 42 43 44 45 46 47 48 48 48 49 50 51 51 52 53 53 53 52 52 51 51 51 50 50 49 47 45 44 42 41 40 39 38 38 38 37
38 39 40 41 42 43 43 44 45 46 48 49 50 51 52 52 53 53 54 54 55 55 55 55 54 53 53 52 52 51 49 48 46 44 43 41 40 39 38 37 37 36 35
39 41 42 43 44 45 46 47 48 49 50 51 53 54 55 55 56 56 57 57 57 57 57 56 54 54 53 52 51 49 48 46 45 43 42 40 40 38 38 37 36 36 35
41 42 43 45 46 47 48 49 50 52 53 54 55 56 57 58 58 58 59 58 57 56 56 55 54 53 51 50 49 47 45 44 43 42 40 39 38 37 37 36 35 34 34
43 44 45 46 48 49 50 51 53 54 55 56 57 58 59 59 59 59 58 57 56 56 55 54 52 51 49 48 46 44 42 41 40 39 38 37 36 35 35 34 33 33 32
43 45 46 48 49 51 52 53 54 56 57 57 58 59 59 59 59 59 58 56 55 54 52 51 49 48 46 45 44 42 41 39 38 37 36 34 33 33 33 32 31 30 30
45 47 48 49 51 52 53 55 56 57 58 58 58 58 58 57 57 56 54 53 52 51 49 48 46 44 43 42 41 39 37 36 35 34 32 32 32 31 31 30 29 28 28
47 48 50 51 53 54 55 56 56 56 56 56 57 56 55 54 53 52 51 49 47 45 44 43 42 40 39 38 37 35 34 33 32 32 31 30 30 29 28 27 27 27 27
49 50 51 53 53 54 55 55 55 55 55 54 54 53 51 50 49 47 45 42 41 41 39 38 37 36 35 34 32 31 30 30 30 29 29 28 28 27 26 26 26 26 26
50 51 51 52 53 53 53 53 52 51 51 50 49 48 46 45 43 42 41 40 39 37 36 34 33 32 32 30 29 29 28 28 27 27 27 26 25 24 24 24 24 24 23
49 50 50 50 50 50 49 48 47 46 45 44 43 42 41 40 39 38 37 36 35 33 32 31 30 30 29 27 27 27 26 25 25 25 24 23 22 22 22 22 22 21 21

GEFSGL_500_meanwind_120.txt.gz
Wind_Speed
8 9 10 11 11 11 11 11 11 11 11 12 13 14 15 15 16 17 18 19 20 21 22 23 23 23 23 24 24 24 25 25 25 26 26 26 26 26 26 26 26 26 27
9 10 11 11 12 12 13 13 13 14 14 15 16 17 18 18 19 20 21 22 23 24 24 25 25 25 25 26 26 26 26 26 27 27 28 28 28 28 28 27 28 28 28
10 11 12 13 14 14 15 15 16 17 17 18 19 20 20 21 22 23 24 25 26 26 26 27 27 26 26 27 27 28 28 28 28 29 29 30 30 30 29 29 29 29 28
13 13 14 15 16 17 17 18 19 20 20 21 22 23 23 24 25 26 27 27 28 28 28 28 28 28 28 28 29 29 30 30 30 30 31 31 31 31 31 31 31 30 30
15 16 16 17 17 18 19 20 21 22 23 24 25 25 26 27 28 28 29 29 30 30 30 30 30 30 30 30 31 31 31 32 32 32 32 33 33 33 33 33 32 31 31
17 18 18 19 19 20 21 22 23 24 25 26 27 27 28 29 30 30 31 31 31 31 32 32 32 32 32 33 33 33 33 34 34 34 34 35 35 35 35 35 34 33 33
19 20 21 22 22 23 23 24 25 26 27 28 29 29 30 31 32 32 33 33 33 33 33 33 33 34 34 34 35 35 36 36 36 36 36 36 37 37 37 36 36 35 34
21 22 23 24 24 25 26 27 28 29 30 30 31 32 33 33 34 34 35 35 35 35 35 35 35 36 37 37 37 37 37 37 38 38 37 38 38 38 38 38 37 37 36
23 24 25 26 26 27 27 28 29 31 31 33 34 34 34 34 35 36 37 36 36 36 37 37 38 38 38 39 39 39 38 38 39 39 38 38 39 39 39 39 39 39 38
25 26 28 29 29 29 29 30 31 31 32 33 34 34 35 36 36 37 37 38 38 39 39 39 39 39 39 40 40 40 39 40 40 40 41 41 41 40 41 41 41 40 40
27 27 28 29 30 30 31 31 33 33 33 33 34 36 36 36 37 37 38 40 41 41 40 40 40 40 41 41 41 41 42 42 42 42 42 42 42 42 42 42 42 42 41
28 30 31 31 32 32 32 33 34 35 35 36 37 37 38 38 39 39 40 40 41 42 42 42 42 42 42 42 43 44 44 45 45 44 44 44 44 44 44 44 44 43 42
31 31 32 33 34 34 34 34 35 36 38 38 39 39 39 40 40 40 41 42 43 44 44 45 45 44 45 45 46 47 47 47 47 47 47 46 46 46 46 45 45 44 43
32 33 33 34 35 36 35 35 37 38 38 39 40 41 41 42 42 43 44 45 45 46 46 46 47 48 48 48 49 50 49 50 50 50 49 48 48 47 46 46 46 44 43
35 35 36 36 37 37 37 37 38 39 40 41 42 44 44 45 46 46 47 48 49 49 50 50 50 51 51 52 52 51 51 51 52 52 51 50 49 48 47 47 46 44 42
37 37 37 38 39 38 38 38 38 39 41 42 43 45 47 48 49 49 50 51 51 52 52 52 52 53 53 54 54 54 53 53 53 52 50 49 48 48 47 46 45 44 42
38 38 38 38 39 38 39 40 41 41 43 44 45 47 48 48 49 50 51 52 53 53 53 53 54 54 55 54 54 54 53 53 52 52 51 49 49 48 46 45 44 43 42
38 39 39 39 40 40 41 42 42 43 44 46 47 48 49 50 50 51 52 53 54 54 54 54 54 55 54 53 53 53 52 52 52 51 50 48 47 46 45 44 42 42 40
37 38 39 40 40 41 42 43 44 45 46 48 49 50 51 52 52 52 53 54 54 54 54 54 54 54 53 53 53 53 52 51 50 49 48 47 45 44 43 42 40 39 38
37 38 39 40 41 42 43 44 46 48 49 51 51 52 53 53 53 53 53 54 53 53 54 53 53 53 53 52 52 51 50 49 47 47 45 45 43 42 40 39 37 37 37
39 40 41 42 43 44 45 47 48 49 51 52 52 52 52 52 52 52 53 53 53 52 52 52 51 51 50 49 48 46 45 44 43 42 42 41 40 39 37 36 36 35 35
41 42 43 44 45 46 47 48 49 50 51 51 50 49 50 50 50 50 50 50 49 49 49 49 48 47 46 45 44 43 42 41 41 40 40 38 36 36 35 34 34 34 34
42 43 44 45 46 47 47 48 48 48 48 48 48 48 48 48 48 48 48 48 48 47 47 47 45 44 43 42 41 41 40 39 38 38 37 35 34 33 33 32 32 32 32
43 44 45 46 47 47 47 47 47 47 46 47 47 47 47 47 47 47 47 46 46 46 45 44 43 42 41 40 39 39 38 38 36 35 34 33 32 31 31 31 30 30 29
44 45 46 46 46 46 46 46 46 46 46 46 45 45 45 45 45 45 45 45 45 44 43 41 40 40 38 37 36 36 35 34 34 33 32 31 31 30 30 29 29 28 27
45 45 46 45 45 45 44 45 45 45 44 44 44 43 43 43 43 43 43 43 42 40 39 38 37 35 34 33 33 32 31 30 30 30 29 29 28 28 27 27 26 25 25

GEFSGL_500_meanwind_126.txt.gz
Wind_Speed
12 12 13 14 15 15 15 15 14 14 13 12 12 11 11 11 11 12 12 13 13 14 15 15 16 17 17 17 17 18 18 18 19 19 18 19 19 20 20 21 21 22 22
11 12 13 14 14 15 15 15 15 15 15 14 14 14 14 14 15 15 15 16 16 17 17 18 19 20 20 20 20 20 20 21 21 22 22 22 22 22 23 23 24 24 24
11 11 12 13 14 15 15 16 16 16 16 16 17 17 17 17 18 18 18 18 19 20 20 21 21 22 22 22 22 23 23 23 23 24 24 24 24 25 25 25 26 26 26
11 12 12 13 14 15 16 17 17 18 18 19 19 19 20 20 20 21 21 21 22 22 23 23 24 24 24 25 25 25 25 26 26 26 26 27 27 27 27 28 28 27 27
12 13 13 14 15 16 17 18 19 19 20 20 21 22 22 22 23 23 24 24 24 25 25 26 26 27 27 27 27 27 27 27 28 28 28 28 29 29 29 30 30 29 30
14 15 15 16 17 18 19 19 20 21 22 22 23 23 24 25 25 26 26 26 27 28 28 28 29 29 30 29 29 29 29 30 30 30 30 31 31 31 31 32 32 32 32
15 16 17 18 19 19 21 22 22 23 24 24 25 26 26 27 28 28 28 29 30 30 30 30 31 31 31 31 32 32 32 32 32 32 32 33 33 34 34 34 34 34 34
17 17 17 19 21 21 22 23 24 24 25 26 27 28 29 29 29 30 30 31 31 31 31 31 32 32 33 33 34 34 34 34 34 35 34 34 34 35 36 36 36 36 36
18 19 19 21 22 23 24 25 26 27 28 28 29 30 30 31 30 31 32 32 32 32 33 33 33 34 35 35 36 35 35 35 36 37 37 37 37 38 38 38 39 39 38
21 21 22 23 23 24 25 26 28 28 28 28 28 29 30 31 31 33 34 34 34 34 34 35 35 36 37 37 37 38 37 38 39 39 40 40 40 41 41 42 42 42 41
23 24 24 24 24 25 25 27 28 28 29 30 31 31 32 32 33 34 35 35 36 36 36 36 37 38 38 39 40 40 40 41 42 42 43 43 43 44 44 45 45 45 45
25 26 26 27 26 26 27 27 28 29 31 32 33 33 34 34 35 36 37 37 38 39 39 39 39 41 41 42 42 43 43 44 45 45 46 46 47 47 47 48 48 49 49
26 27 27 27 27 28 29 29 31 32 33 33 34 35 36 37 37 38 39 39 40 41 41 42 43 44 45 45 45 46 47 47 48 49 49 49 50 50 50 51 51 52 52
28 28 28 28 29 30 31 32 33 34 34 35 36 36 38 38 39 40 41 42 43 44 44 45 46 47 48 48 49 49 50 51 51 51 51 51 52 53 53 53 54 54 54
29 30 30 30 30 32 33 34 35 35 36 36 37 38 39 40 41 42 43 44 44 45 46 47 48 49 49 50 51 52 52 53 53 53 54 54 55 55 55 56 56 56 55
32 33 33 34 34 35 36 37 38 37 38 39 39 40 41 42 42 44 44 45 46 46 47 48 50 50 51 51 52 52 53 54 54 55 55 55 55 56 56 56 55 55 54
32 33 34 35 36 37 38 38 38 39 39 40 41 42 43 44 45 46 46 46 46 47 48 49 50 50 50 51 51 52 53 54 55 56 56 56 56 56 55 55 55 54 53
32 33 34 35 36 37 38 38 40 40 41 41 41 42 43 44 45 46 45 46 48 48 49 49 50 50 51 51 52 53 54 54 55 55 55 55 55 54 54 53 52 51 51
32 33 34 35 37 38 39 40 40 41 42 42 43 44 45 46 47 48 48 49 49 49 49 49 50 50 51 52 52 53 53 53 53 52 52 51 51 51 50 50 49 48 48
33 35 36 38 39 41 41 42 43 44 44 45 46 47 47 48 49 49 49 49 50 50 50 50 50 50 51 51 51 51 51 51 50 50 49 48 48 47 47 46 46 46 45
36 37 38 40 41 42 43 43 44 45 46 46 46 47 47 48 48 49 50 50 50 50 50 50 49 49 49 50 49 49 48 48 48 47 46 46 45 44 44 43 42 42 41
37 38 40 41 42 43 44 45 45 45 46 46 46 47 47 47 48 49 49 49 49 48 48 48 49 48 48 47 47 47 46 46 46 46 45 44 43 41 41 40 40 39 38
38 40 41 42 43 43 44 45 45 45 45 46 46 47 47 48 48 48 48 48 48 47 47 47 47 46 46 46 45 45 44 43 43 43 42 41 40 39 39 38 37 37 36
40 41 42 42 43 44 44 44 44 45 46 46 46 46 46 46 46 46 45 45 45 44 44 44 44 44 43 43 43 43 41 40 39 38 37 36 35 35 35 35 35 35 34
40 41 42 42 43 43 43 44 44 44 44 44 44 44 44 44 44 43 42 42 41 41 41 41 41 41 41 40 38 37 36 35 35 34 34 33 32 32 32 31 31 30 30
40 41 42 42 42 42 42 42 41 40 40 40 39 39 39 40 39 39 38 38 38 38 38 38 38 37 36 34 32 31 31 31 31 31 30 29 28 28 28 27 27 26 26

GEFSGL_500_meanwind_132.txt.gz
Wind_Speed
15 17 18 19 19 19 19 18 18 19 19 18 18 17 17 16 15 15 15 15 15 15 15 16 17 17 18 18 19 19 19 20 20 21 21 22 23 23 24 24 24 24 24
13 15 17 18 18 18 18 18 18 18 19 19 18 18 18 18 17 17 18 18 18 18 19 19 20 20 21 22 22 22 23 23 23 24 24 25 25 26 26 27 27 27 27
13 14 15 16 17 17 18 18 17 18 18 19 18 18 19 20 20 21 21 21 22 22 22 23 24 24 25 25 25 26 26 27 27 27 27 27 28 28 28 29 29 29 29
12 14 14 15 16 17 17 18 18 19 19 19 20 20 21 22 23 23 23 24 24 25 26 26 27 27 28 28 29 29 29 30 30 30 30 31 31 30 30 31 31 31 32
13 14 15 16 16 17 17 18 19 20 20 20 21 22 23 24 24 25 25 26 27 28 29 30 30 30 31 31 31 32 32 32 33 33 33 33 34 34 34 33 34 34 34
15 16 16 17 17 17 18 18 19 21 22 23 24 25 26 27 27 27 28 29 30 31 32 32 33 33 34 35 35 35 35 35 35 35 35 36 36 37 37 36 36 36 36
18 18 18 18 19 19 20 21 21 23 24 25 26 27 28 29 30 30 31 31 32 33 34 35 35 36 36 36 37 37 38 38 38 38 38 38 39 39 40 39 39 39 39
20 20 21 21 21 22 22 23 23 24 25 27 28 29 30 31 32 33 33 33 34 34 35 36 37 38 38 38 39 39 39 39 40 40 40 40 41 41 42 42 42 42 41
22 22 23 24 24 24 25 26 27 27 28 28 29 30 31 32 33 34 34 35 35 36 36 37 38 39 40 40 40 40 40 41 42 42 43 43 43 44 44 44 45 45 44
24 25 26 26 26 26 27 28 29 30 30 30 31 32 32 33 34 35 35 36 37 38 39 40 40 41 41 42 43 43 43 43 44 44 45 45 46 46 47 47 48 48 48
27 27 27 27 27 28 29 29 30 31 32 32 32 33 33 33 34 35 36 37 38 39 41 42 43 43 44 45 45 45 46 46 46 46 47 48 49 49 50 51 51 52 51
28 28 28 28 28 29 30 30 31 32 32 32 33 34 35 36 36 38 39 39 40 41 42 43 45 46 46 47 48 48 48 49 49 49 50 51 52 52 53 54 54 54 54
28 28 29 30 30 31 32 33 33 34 34 34 35 36 37 38 39 39 40 41 43 44 45 46 46 47 48 49 50 51 51 51 51 52 52 53 54 54 55 55 56 56 57
27 28 30 31 32 33 34 34 35 35 36 37 37 38 39 40 41 41 42 44 44 45 46 47 49 50 50 51 52 53 53 53 53 53 53 54 55 55 55 56 57 57 56
27 29 30 31 32 33 34 34 36 35 36 37 38 40 41 41 42 44 44 45 46 47 47 49 50 51 52 52 53 54 54 54 55 55 55 55 55 56 56 56 56 56 57
28 30 31 32 33 33 34 34 35 37 37 37 38 39 41 42 43 45 46 46 47 48 49 50 51 52 52 53 53 53 54 55 55 55 55 55 55 55 56 57 58 58 58
28 29 30 31 32 33 34 35 35 37 38 39 39 41 43 45 46 47 47 48 48 49 50 51 51 52 52 52 53 54 54 55 55 55 55 55 55 56 57 58 58 58 58
28 29 30 31 32 33 35 36 37 38 39 41 42 43 44 45 47 47 48 49 50 50 50 51 51 51 52 52 53 53 53 53 53 54 55 55 56 56 56 55 55 55 55
29 30 31 32 34 35 36 37 38 40 42 43 44 45 46 47 48 48 49 49 49 50 51 52 52 52 53 53 52 52 52 53 53 53 54 54 54 53 53 53 53 52 52
30 32 33 35 36 37 38 40 41 43 44 45 46 47 48 48 49 49 49 50 51 51 51 51 51 51 52 51 51 51 52 52 52 52 52 52 51 51 51 52 51 51 50
32 33 35 36 37 39 40 41 43 44 45 46 47 48 48 48 49 49 50 50 51 51 51 51 51 51 52 52 52 52 52 51 51 51 50 50 49 49 48 48 47 47 46
34 35 36 38 39 40 41 43 44 45 46 47 48 48 48 48 49 49 49 49 49 50 50 50 50 49 49 50 50 50 50 49 49 48 48 47 46 45 45 44 43 43 43
36 37 38 40 41 42 43 44 45 46 47 47 47 47 47 47 47 46 46 47 47 47 48 48 48 48 48 48 48 48 47 47 46 46 45 44 43 42 42 42 41 41 40
38 39 41 42 43 44 45 46 47 47 48 47 47 46 45 44 44 44 44 44 44 45 45 45 44 43 43 43 43 43 42 42 41 41 41 40 40 40 39 39 38 37 36
40 41 42 43 44 45 46 47 47 46 45 44 43 42 41 41 41 41 41 40 40 39 39 38 38 38 38 39 38 37 37 36 36 35 35 34 35 34 34 34 33 32 31
41 42 42 43 44 44 44 43 43 42 41 40 39 38 38 38 37 37 36 35 34 34 33 33 33 33 33 33 33 32 32 31 31 30 29 29 29 28 28 27 26 26 25

GEFSGL_500_meanwind_138.txt.gz
Wind_Speed
13 15 17 18 19 20 19 19 19 18 18 17 17 17 18 18 17 17 17 17 16 16 16 16 17 17 17 18 18 19 19 20 21 21 22 23 23 24 24 25 25 25 25
12 14 15 17 18 19 19 18 19 19 18 18 17 17 18 18 19 18 18 18 18 18 18 19 19 20 20 21 21 22 23 24 24 25 26 26 27 27 27 28 28 28 28
11 12 14 15 17 17 18 18 18 19 18 18 19 19 19 20 21 21 20 20 20 20 21 22 22 23 24 24 24 25 26 27 28 28 29 29 29 30 30 30 31 31 31
10 11 12 14 15 16 17 18 18 18 19 19 20 20 21 21 21 22 23 23 23 24 24 25 25 26 26 26 27 27 28 29 30 31 32 32 32 33 33 33 33 33 34
11 12 13 14 16 16 17 18 18 19 19 20 21 21 21 22 23 24 25 26 27 27 28 28 28 28 29 29 30 31 31 32 33 34 34 35 35 35 35 35 36 36 37
12 13 14 15 17 18 18 18 18 19 20 20 21 22 22 23 24 25 26 27 29 29 30 31 31 31 32 33 34 34 34 35 35 35 36 37 37 37 37 37 37 37 38
13 15 16 17 17 18 19 19 19 20 21 22 22 23 23 24 25 26 27 28 29 31 31 32 33 34 35 36 37 37 38 38 38 37 37 38 38 39 40 40 39 39 39
15 16 17 18 19 20 20 21 22 23 23 24 25 26 26 26 28 29 30 31 32 33 34 34 35 36 36 38 39 39 40 40 40 41 40 40 41 41 42 42 42 42 42
17 18 19 19 21 22 23 23 24 25 26 27 27 28 28 29 31 32 33 33 34 35 36 36 37 37 39 40 41 41 41 42 43 43 43 43 44 44 45 45 46 46 46
19 20 21 22 23 24 25 26 26 27 28 29 30 31 32 33 34 35 35 36 36 37 39 39 40 41 42 43 43 44 44 45 46 45 45 46 46 47 48 48 48 49 49
21 22 23 23 25 27 27 27 28 29 30 31 32 33 34 35 36 37 38 39 40 40 41 42 43 43 44 45 46 47 47 47 48 48 48 49 49 49 50 50 51 51 52
23 24 24 25 26 27 29 29 30 31 32 33 34 35 36 38 39 40 41 42 43 43 43 44 45 45 46 47 48 48 48 49 49 50 50 51 51 51 52 52 53 54 54
26 26 26 27 28 28 30 31 32 33 34 34 35 36 38 40 41 42 43 44 44 44 45 46 47 47 48 49 49 49 50 50 51 51 52 52 53 53 54 54 55 55 54
26 27 28 29 29 30 30 31 33 34 35 37 38 38 38 40 41 43 45 45 47 48 48 48 48 50 50 50 50 50 51 52 52 53 54 54 54 54 55 55 55 55 55
28 29 29 29 30 31 32 32 32 32 34 35 37 38 39 40 41 43 44 45 46 47 48 48 49 49 50 50 50 52 53 53 53 54 54 54 54 55 55 55 56 56 55
29 29 29 29 29 30 31 31 31 33 34 35 36 38 39 40 41 42 42 43 44 46 47 47 48 49 49 50 51 52 53 54 55 55 55 55 54 54 54 55 55 55 55
28 29 29 28 28 28 29 30 32 34 35 36 37 38 39 40 41 42 43 44 46 47 48 48 48 49 50 51 52 53 54 55 55 56 55 55 55 54 54 54 55 54 54
27 27 28 28 28 29 30 31 32 33 35 36 38 39 40 41 42 43 45 46 47 48 48 48 49 50 51 52 52 51 52 53 54 54 54 54 53 53 53 53 53 52 52
23 24 24 25 27 28 30 32 33 34 36 38 40 41 41 43 44 45 46 47 48 48 48 48 49 50 50 51 51 51 52 52 52 52 51 51 50 51 51 52 52 52 51
22 24 25 26 28 30 31 33 34 36 38 40 41 42 43 44 46 46 47 47 47 47 48 48 49 49 50 50 50 50 50 49 49 49 49 49 49 50 50 50 50 50 49
23 25 26 28 30 32 33 35 37 38 40 41 42 43 44 45 46 46 46 46 46 46 47 47 47 47 47 47 47 47 47 47 47 47 48 48 49 48 48 47 47 46 46
26 27 29 31 33 34 36 37 38 40 41 42 44 45 45 46 46 45 45 45 45 45 45 44 44 44 44 45 45 44 44 44 44 44 45 45 45 44 43 42 41 41 42
28 30 32 33 35 36 38 39 40 41 42 43 44 45 44 44 44 44 43 43 42 41 41 41 41 41 41 41 41 41 40 40 40 40 40 40 39 39 39 38 38 37 37
31 33 35 36 38 39 40 40 41 42 43 42 42 42 42 42 41 40 40 39 38 38 37 37 37 37 38 38 37 36 35 36 36 36 35 35 35 35 35 34 34 34 33
34 35 37 38 39 39 39 40 41 41 41 40 40 40 39 39 38 37 36 36 35 35 35 35 35 35 34 33 32 32 32 33 33 32 31 31 30 30 30 29 29 28 28
35 36 37 38 38 38 38 39 39 38 38 38 37 37 37 36 36 35 35 34 34 33 33 32 31 30 30 30 30 30 30 30 30 29 28 27 26 25 24 23 23 23 23

GEFSGL_500_meanwind_144.txt.gz
Wind_Speed
10 11 13 15 16 17 18 19 18 18 18 18 19 19 18 17 16 17 17 16 16 15 15 15 15 15 15 16 16 17 17 18 18 18 19 20 21 21 22 23 24 24 24
8 10 11 13 14 15 16 17 17 18 18 18 18 18 18 17 17 17 17 17 17 17 17 17 18 18 19 19 19 19 20 21 21 22 22 23 24 25 26 26 26 27 27
5 7 10 11 12 13 15 16 17 17 18 18 17 17 17 17 17 17 18 19 18 19 19 20 21 22 22 22 22 22 23 24 25 25 26 26 26 28 28 29 29 30 30
5 7 10 11 12 13 14 15 17 17 18 18 17 17 16 17 18 18 19 20 20 21 22 23 24 24 24 24 25 26 26 27 28 29 29 29 29 30 31 32 32 32 32
5 6 8 10 11 11 12 13 16 16 16 17 17 17 18 18 19 20 21 21 22 23 23 24 25 26 26 27 27 28 30 30 31 31 31 31 31 33 33 33 34 34 34
5 7 8 9 11 12 12 13 15 16 17 17 17 18 19 19 20 21 21 21 22 24 25 26 27 28 29 29 30 31 32 33 33 34 33 34 35 36 36 36 36 37 36
9 9 10 11 12 13 14 14 15 16 17 17 17 18 18 19 20 21 22 23 24 25 26 28 29 30 31 32 33 34 35 36 37 37 37 37 38 38 39 39 39 40 40
12 12 11 12 13 15 16 16 17 17 18 18 18 19 20 21 22 23 24 25 26 27 28 29 31 32 33 34 35 36 37 38 38 39 40 41 42 42 42 42 43 43 43
14 14 14 14 15 16 17 17 18 19 20 21 22 22 23 23 24 25 26 27 28 30 31 32 33 34 35 36 37 38 39 40 41 43 43 44 44 44 45 45 46 46 46
16 16 16 17 17 18 19 18 20 21 22 23 24 25 25 26 27 28 29 30 30 32 33 34 36 36 38 39 40 41 41 42 44 45 46 46 46 47 48 48 49 49 49
17 18 18 19 19 19 20 21 21 22 23 25 26 26 27 28 29 30 31 32 34 35 36 37 38 39 39 40 42 43 44 45 46 47 47 48 48 48 48 49 50 51 51
20 20 20 20 20 21 21 21 22 23 24 25 26 28 29 30 31 32 34 35 36 37 38 39 40 40 40 42 44 45 47 48 48 49 50 50 50 50 51 51 52 52 52
22 22 21 22 23 23 23 24 25 26 26 28 29 30 31 32 33 34 36 37 38 39 40 41 41 42 42 44 46 46 48 48 49 49 49 49 50 51 52 52 53 52 52
24 24 24 24 24 25 25 26 28 28 29 29 30 31 32 33 35 35 36 37 38 40 40 41 42 43 43 44 45 45 47 48 48 48 49 49 50 50 51 52 52 52 52
26 27 27 26 26 27 27 27 28 29 30 30 31 32 33 34 35 36 37 37 38 40 41 42 43 43 45 45 46 46 46 47 47 48 49 50 51 51 51 52 52 52 52
25 26 27 27 28 29 29 29 30 30 30 30 32 32 33 35 37 37 38 39 41 41 42 43 44 44 45 46 46 47 47 48 48 50 51 51 51 51 51 51 51 51 50
26 27 27 28 29 30 30 30 30 31 32 33 33 33 33 34 36 37 38 40 41 42 43 43 44 45 46 46 47 47 47 48 50 50 51 51 52 52 51 52 52 50 50
26 26 27 28 28 29 29 30 31 31 31 32 32 33 34 35 36 37 38 40 41 41 43 43 44 45 45 46 47 48 49 49 50 51 52 52 52 52 51 50 49 49 49
23 23 23 24 25 25 26 27 27 28 30 31 32 33 35 36 38 39 39 40 41 42 43 44 45 45 46 46 47 48 49 50 50 50 50 50 50 50 49 48 48 48 48
19 20 20 21 22 24 25 27 28 29 30 32 33 35 37 38 39 40 41 42 43 43 44 44 45 46 46 47 47 47 48 47 47 48 48 47 47 47 46 46 46 46 46
19 20 21 22 23 25 26 28 30 32 34 35 36 37 38 40 41 42 43 43 44 44 45 45 45 45 45 46 46 45 45 45 45 44 44 44 43 43 42 42 42 42 42
19 20 22 24 26 28 29 31 33 34 36 37 38 39 40 41 43 43 44 44 44 44 44 43 44 44 44 44 44 44 43 43 42 42 41 41 40 39 39 39 39 39 39
22 23 25 27 29 30 32 34 35 36 38 39 40 42 42 42 42 42 42 42 42 42 41 41 42 42 42 42 41 41 40 39 39 38 38 38 37 36 36 36 36 36 35
25 27 29 30 31 32 34 35 37 38 39 40 40 41 41 40 40 39 39 40 40 40 40 40 40 39 39 38 38 37 36 35 35 35 34 34 34 33 32 32 31 31 30
27 29 30 32 33 34 35 36 37 38 38 38 38 38 38 38 38 38 38 38 38 38 38 38 37 37 36 36 35 34 33 32 32 32 32 32 31 30 29 28 28 27 27
29 31 32 33 34 35 35 36 36 37 36 36 36 36 36 36 36 36 36 36 37 37 36 36 35 35 34 34 33 32 32 31 31 30 30 30 29 28 27 26 25 25 24

GEFSGL_500_meanwind_150.txt.gz
Wind_Speed
10 13 14 16 17 19 20 20 21 20 21 21 22 22 21 20 20 20 20 19 19 19 18 18 19 18 18 18 18 17 16 17 17 17 18 18 18 19 20 20 20 21 22
8 10 12 14 16 17 19 19 20 21 21 21 21 21 21 20 20 20 20 20 19 19 19 19 20 20 19 20 20 19 19 19 20 20 21 21 22 22 23 23 24 24 25
7 10 12 13 14 16 18 19 21 21 21 21 22 21 21 20 20 20 20 20 20 20 20 20 20 21 21 22 22 22 22 22 22 22 23 24 25 25 26 26 26 27 27
7 8 11 13 15 17 18 18 20 21 21 21 22 22 21 21 20 20 20 20 20 21 21 22 22 23 23 24 24 24 25 25 25 26 26 27 27 27 28 28 29 30 30
6 7 9 12 14 15 17 18 18 20 20 21 22 22 21 20 19 20 21 21 21 22 23 24 25 25 26 26 26 27 27 28 28 28 29 30 30 31 31 31 32 32 33
6 7 8 10 12 14 15 17 18 18 18 20 20 21 20 20 20 20 20 21 23 24 25 25 26 26 27 28 28 29 30 30 30 31 31 32 33 34 34 34 35 34 35
7 8 9 10 12 13 15 16 16 17 18 18 19 20 20 21 22 22 22 23 24 24 25 25 26 27 28 28 30 31 32 32 33 33 34 35 35 37 37 38 38 39 38
8 9 10 10 11 12 13 14 16 17 17 18 19 20 21 22 23 23 24 24 25 25 25 26 27 28 28 29 31 32 33 34 35 36 36 37 38 39 40 41 41 42 42
10 10 11 11 12 13 15 16 16 17 18 19 20 21 22 23 24 24 25 26 26 26 27 28 28 29 30 32 32 33 34 35 36 37 37 38 40 41 42 44 44 45 45
13 12 12 12 12 14 15 17 17 17 18 20 22 23 24 25 26 26 27 28 28 29 30 31 31 32 32 33 34 35 36 37 38 38 39 40 42 43 45 46 47 48 48
14 14 14 14 15 16 17 18 18 19 20 22 24 25 25 27 28 28 29 29 30 31 32 32 33 33 34 34 35 36 37 38 40 41 42 43 45 46 48 49 50 50 51
16 16 16 16 17 18 18 19 19 20 21 22 23 23 24 26 27 28 29 30 31 32 33 34 35 35 36 37 38 38 39 40 42 43 45 46 47 48 49 50 50 51 52
18 18 18 18 18 19 19 19 20 20 20 21 22 23 24 25 26 27 28 31 33 34 34 35 35 36 38 39 40 41 41 43 44 46 46 47 48 48 49 49 50 51 52
20 20 20 20 21 20 20 20 21 21 21 21 22 23 25 26 26 28 30 31 32 33 35 35 36 38 39 40 41 42 43 44 45 46 47 47 47 48 49 50 50 50 51
21 21 21 21 22 21 21 21 21 22 23 23 23 24 25 26 28 29 30 30 32 33 34 35 37 38 39 40 41 42 43 44 45 46 46 46 46 48 49 50 51 52 53
21 22 23 23 23 23 23 23 24 24 24 24 24 25 26 27 28 30 31 32 34 35 35 37 38 39 41 42 43 43 43 44 44 45 46 46 47 48 49 51 52 53 54
20 21 22 23 23 24 24 25 25 26 26 26 27 28 28 29 30 31 32 34 36 36 37 38 39 40 41 42 43 43 44 45 45 46 47 47 48 49 51 52 53 54 54
19 20 21 21 22 22 22 22 23 24 26 27 27 28 29 30 31 32 33 34 35 37 38 39 40 41 42 43 44 45 46 46 46 47 47 48 49 50 51 52 52 53 53
17 18 18 19 19 20 20 21 22 23 24 24 25 27 27 29 31 33 34 35 36 38 40 41 42 42 43 44 45 46 46 46 47 47 48 48 49 49 50 50 50 50 49
15 16 17 17 18 18 19 20 21 23 25 26 27 29 30 32 33 35 36 38 39 40 41 42 44 44 45 45 46 46 46 46 47 47 47 47 47 47 47 46 46 45 45
14 15 15 16 17 18 20 21 23 25 27 28 30 31 32 34 35 37 38 40 41 42 43 43 44 44 44 44 44 44 45 45 45 45 45 44 44 44 43 42 42 41 39
13 13 15 16 18 20 22 24 26 27 29 31 33 34 35 37 38 38 40 41 42 42 42 42 42 42 42 42 42 42 43 42 42 42 42 42 41 41 40 39 39 37 35
14 16 17 19 20 22 24 26 28 30 32 34 35 36 37 38 39 40 41 41 41 41 40 40 40 40 40 40 40 40 41 40 40 40 40 39 38 38 38 36 35 33 31
17 19 20 22 23 25 27 28 30 32 33 35 36 37 38 40 40 40 40 39 39 39 39 39 39 39 39 39 39 39 39 39 39 38 37 36 35 35 34 33 32 31 31
20 22 23 25 26 28 29 31 32 34 35 36 37 38 38 39 39 38 38 37 37 38 38 37 37 36 36 37 37 37 37 37 36 35 35 34 33 32 31 30 29 29 29
23 25 26 28 29 31 32 33 34 35 36 37 37 38 37 37 37 36 35 35 35 35 36 35 35 35 35 35 35 35 35 34 33 32 32 31 30 29 29 29 28 28 28